Location: Hylvaty SDH
(49.9612°N, 16.4057°E)
Time: 12:45:03
(UTC+01:00)

Tiros 1 - Pass Details

Date: 08 October 2020
Orbit: 630 x 663 km, 48.4° (Epoch: 28 October)

Event Time Altitude Azimuth Distance (km) Brightness Sun altitude
Rises 11:06:50 0° 200° (SSW) 2,913 11.1 30.2°
Reaches altitude 10° 11:09:50 10° 179° (S) 2,014 10.8 30.5°
Maximum altitude 11:12:46 17° 140° (SE) 1,621 10.9 30.7°
Drops below altitude 10° 11:15:44 10° 100° (E) 2,034 10.3 30.9°
Sets 11:18:47 0° 81° (E) 2,954 10.7 31.1°
